Location: Bathurst
(33.4193°S, 149.5775°E)
Time: 21:11:07
(UTC+11:00)

ISS - Pass Details

Date: 31 January 2021
Orbit: 417 x 422 km, 51.6° (Epoch: 28 February)

Event Time Altitude Azimuth Distance (km) Brightness Sun altitude
Exits shadow 03:58:00 15° 194° (SSW) 1,260 -1.0 -26.0°
Drops below altitude 10° 03:59:23 10° 171° (S) 1,524 -0.2 -25.8°
Sets 04:02:07 0° 148° (SSE) 2,394 1.4 -25.4°
